SCP
0 0 0 -0 0 -0 0 0 0 0 0 0 0 0 -0 0 -0 0 -0 -0 0 -0 -0 -0 -0 -0 -0 0 0 0 0 -0 -0 -0 -0 -0 -0 -0 -0 -0 -0 -0 -0 -0 -0 -0 -0 -0 -0
0 0 -0 -0 0 0 0 0 0 0 0 0 0 0 0 0 -0 -0 0 0 -0 -0 -0 -0 -0 -0 -0 0 0 0 0 -0 -0 -0 -0 -0 -0 -0 -0 -0 -0 -0 -0 -0 -0 -0 -0 -0 -0
0 0 0 0 0 0 0 0 -0 0 0 0 0 0 -0 0 0 0 0 -0 0 -0 -0 -0 -0 -0 -0 0 0 0 -0 0 -0 -0 -0 -0 -0 -0 -0 -0 -0 -0 -0 -0 -0 -0 -0 -0 0
0 0 0 0 0 0 0 0 -0 0 0 0 0 -0 -0 0 0 -0 0 -0 -0 0 -0 -0 -0 -0 0 0 0 0 0 0 -0 -0 -0 -0 -0 -0 -0 -0 -0 -0 -0 -0 -0 -0 -0 -0 0
0 0 0 0 0 0 0 0 0 0 0 0 0 -0 -0 -0 -0 -0 -0 -0 0 -0 0 0 0 -0 0 -0 0 0 -0 -0 -0 -0 -0 -0 -0 -0 -0 -0 -0 -0 -0 -0 -0 -0 -0 0 0
0 0 0 0 0 0 0 0 0 0 0 0 0 -0 0 -0 -0 -0 -0 -0 0 -0 0 0 0 0 -0 -0 -0 -0 -0 -0 -0 -0 -0 -0 -0 0 -0 -0 -0 -0 -0 -0 -0 -0 -0 0 0
0 0 0 0 0 0 0 0 0 0 0 0 0 -0 -0 -0 -0 0 -0 -0 -0 -0 0 -0 -0 0 0 0 -0 -0 -0 -0 -0 -0 -0 -0 -0 -0 -0 -0 -0 -0 -0 -0 -0 -0 -0 -0 -0
0 0 0 0 0 0 0 0 0 0 0 0 0 0 -0 -0 -0 -0 -0 -0 -0 -0 -0 -0 -0 0 0 0 0 0 0 -0 -0 -0 -0 -0 -0 -0 -0 -0 -0 -0 -0 -0 -0 -0 -0 -0 -0
0 0 0 0 0 0 0 0 0 0 0 0 0 0 -0 -0 -0 -0 0 0 -0 -0 0 0 -0 -0 0 0 0 0 0 -0 -0 -0 -0 -0 -0 0 0 -0 -0 -0 -0 -0 -0 -0 -0 -0 -0
0 0 0 0 0 0 0 0 0 0 0 0 0 0 -0 -0 -0 -0 -0 -0 0 0 -0 0 -0 -0 0 0 0 0 0 -0 -0 -0 -0 -0 0 -0 -0 -0 -0 -0 -0 -0 -0 -0 -0 -0 0
0 0 0 0 0 0 0 0 0 0 0 0 0 -0 -0 -0 -0 -0 0 0 0 0 0 0 -0 -0 -0 0 -0 -0 -0 -0 0 -0 -0 -0 -0 -0 -0 -0 0 -0 -0 -0 -0 0 0 -0 0
0 0 0 0 0 0 0 0 0 0 0 0 0 0 0 0 -0 -0 -0 -0 -0 -0 0 0 0 -0 0 0 -0 0 -0 0 0 0 0 0 0 -0 -0 -0 -0 -0 0 0 0 0 0 0 0
0 0 0 0 0 0 0 0 0 0 0 0 0 0 0 0 0 0 0 -0 0 -0 0 0 0 0 -0 0 -0 0 0 0 0 0 0 0 0 0 0 0 0 0 0 0 0 0 0 0 0
0 0 0 0 0 0 0 0 0 0 0 0 0 0 0 0 0 0 0 0 0 0 0 0 0 0 0 -0 -0 0 0 0 0 0 0 0 0 0 0 0 0 0 0 0 0 0 0 0 0
0 0 0 0 0 0 0 0 0 0 0 0 0 0 0 0 0 0 0 0 0 0 0 0 0 -0 0 0 0 0 0 0 0 0 0 0 0 0 0 0 0 0 0 0 0 0 0 0 0
0 0 0 0 0 0 0 0 0 0 0 -0 0 0 0 0 0 0 0 0 0 0 0 0 0 0 0 0 0 0 0 0 0 0 0 0 0 0 0 0 0 0 0 0 0 0 0 0 0
0 0 0 0 0 0 0 0 0 0 0 0 -0 -0 0 0 0 0 0 0 0 0 0 0 0 0 0 0 0 0 0 0 0 0 0 0 0 0 0 0 0 0 0 0 0 0 0 0 0
0 0 0 0 0 0 0 0 0 0 0 0 0 -0 0 0 0 0 0 0 0 0 0 0 0 0 0 0 0 0 0 0 0 0 0 0 0 0 0 0 0 0 0 0 0 0 0 0 0
0 0 0 0 0 0 0 0 0 0 0 0 0 0 0 0 0 0 0 0 0 0 0 0 0 0 0 0 0 0 0 0 0 0 0 0 0 0 0 0 0 0 0 0 0 0 0 0 0
0 0 0 0 0 0 0 0 0 0 0 0 0 0 0 0 0 0 0 0 0 0 0 0 0 0 0 0 0 0 0 0 0 0 0 0 0 0 0 0 0 0 0 0 0 0 0 0 0
0 0 0 0 0 0 0 0 0 0 0 0 0 0 0 0 0 0 0 0 0 0 0 0 0 0 0 0 0 0 0 0 0 0 0 0 0 0 0 0 0 0 0 0 0 0 0 0 0
0 0 0 0 0 0 0 0 0 0 0 0 0 0 0 0 0 0 0 0 0 0 0 0 0 0 0 0 0 0 0 0 0 0 0 0 0 0 0 0 0 0 0 0 0 0 0 0 0
0 0 0 0 0 0 0 0 -0 -0 0 0 0 0 0 0 0 0 0 0 0 0 0 0 0 0 0 0 0 0 0 0 0 0 0 0 0 0 0 0 0 0 0 0 0 0 0 0 0
0 0 0 0 0 0 0 0 -0 0 0 0 0 0 0 0 0 0 0 0 0 0 0 0 0 0 0 0 0 0 0 0 0 0 0 0 0 0 0 0 0 0 0 0 0 0 0 0 0
0 0 0 0 0 0 0 0 0 0 0 0 0 0 0 0 0 0 0 0 0 0 0 0 0 0 0 0 0 0 0 0 0 0 0 0 0 0 0 0 0 0 0 0 0 0 0 0 0
0 0 0 0 0 0 0 0 0 0 0 0 0 0 0 0 0 0 0 0 0 0 0 0 0 0 0 0 0 0 0 0 0 0 0 0 0 0 0 0 0 0 0 0 0 0 0 0 0
0 0 0 0 0 0 0 0 0 0 0 0 0 0 0 0 0 0 0 0 0 0 0 0 0 0 0 0 0 0 0 0 0 0 0 0 0 0 0 0 0 0 0 0 0 0 0 0 0
0 0 0 0 0 0 0 0 0 0 0 0 0 0 0 0 0 0 0 0 0 0 0 0 0 0 0 0 0 0 0 0 0 0 0 0 0 0 0 0 0 0 0 0 0 0 0 0 0
0 0 0 0 0 0 0 0 0 0 0 0 0 0 0 0 0 0 0 0 0 0 0 0 0 0 0 0 0 0 0 0 0 0 0 0 0 0 0 0 0 0 0 0 0 0 0 0 0
0 0 0 0 0 0 0 0 0 0 0 0 0 0 0 0 0 0 0 0 0 0 0 0 0 0 0 0 0 0 0 0 0 0 0 0 0 0 0 0 0 0 0 0 0 0 0 0 0
Wind_Speed_500mb
15 18 22 17 2 6 8 10 14 13 10 6 15 15 25 28 11 14 36 23 20 31 29 21 13 11 13 13 16 16 10 10 10 10 14 17 18 20 15 31 33 33 35 33 32 32 31 31 35
11 14 12 11 5 9 8 16 12 16 21 16 12 10 12 12 14 35 36 31 27 25 25 16 15 11 13 15 18 18 15 11 12 13 15 20 17 18 30 31 30 34 34 34 33 32 32 35 40
10 8 9 6 6 9 8 10 20 21 12 9 8 14 14 11 31 32 37 32 26 27 21 16 15 14 14 16 21 22 22 20 26 24 24 24 29 34 31 26 25 27 32 33 33 34 33 37 39
9 3 9 4 18 11 12 18 34 19 7 3 6 19 15 19 31 27 44 27 31 22 18 19 18 16 18 19 20 24 24 26 28 27 33 33 32 26 27 31 27 24 27 32 33 33 33 34 35
11 3 3 6 18 12 10 23 33 11 15 11 4 15 24 18 21 35 44 31 26 21 22 22 19 21 21 19 17 24 25 27 28 30 33 35 33 27 24 29 23 21 26 29 30 31 32 32 33
9 7 5 8 15 14 10 15 25 16 22 10 11 22 14 20 33 45 38 26 29 23 24 24 24 27 23 18 20 22 27 24 24 29 30 29 29 28 25 31 24 22 24 26 27 29 31 32 33
8 4 11 11 15 11 10 15 16 18 21 12 14 15 22 32 43 49 28 25 30 21 19 26 26 29 26 19 17 19 20 24 21 25 27 26 25 27 25 22 22 23 22 24 26 28 30 32 33
11 12 5 3 6 8 16 15 9 19 11 17 5 9 15 40 47 47 40 37 27 23 21 27 26 28 26 25 23 19 16 21 24 24 22 20 18 20 23 20 23 21 20 22 23 25 27 28 29
8 5 10 5 7 6 22 13 5 11 18 8 9 11 18 38 51 48 50 37 33 21 25 16 26 24 23 20 20 19 18 17 20 22 21 19 17 16 16 17 20 18 18 19 21 22 23 26 24
13 6 8 3 20 8 20 19 23 12 22 14 16 23 30 40 52 56 56 47 46 41 27 24 23 26 18 22 19 20 20 20 22 23 19 13 10 12 14 15 16 15 16 17 17 16 15 18 18
8 9 8 6 13 12 18 11 9 12 14 25 36 38 34 43 53 52 57 43 49 46 35 30 33 34 27 24 26 26 24 22 23 23 16 16 12 11 12 12 14 13 12 14 12 13 14 12 13
7 26 16 17 10 7 12 19 11 14 13 13 20 31 31 42 49 54 53 47 35 46 50 36 39 39 34 27 26 25 26 24 23 22 22 18 17 13 13 12 12 10 8 9 9 11 10 10 11
16 19 16 18 17 10 9 10 1 16 11 6 17 26 30 29 45 45 40 40 43 41 46 48 40 45 41 35 31 28 28 26 23 22 20 19 16 15 14 11 10 8 7 8 6 6 7 8 9
24 23 19 15 20 10 4 9 7 17 17 19 14 33 32 36 30 38 43 45 51 49 47 51 43 48 44 44 39 32 32 29 28 25 23 21 19 18 16 13 11 10 9 7 7 5 4 4 5
15 18 16 23 21 7 12 11 16 26 15 18 12 23 34 34 38 44 49 51 53 50 51 53 50 44 50 48 49 44 40 34 33 30 29 26 24 21 19 17 15 14 12 10 8 7 6 4 3
21 13 14 24 29 12 16 5 18 46 35 35 21 27 32 38 46 47 48 52 52 53 54 53 55 52 48 50 48 48 44 41 37 36 32 31 29 26 25 22 20 18 15 15 14 12 11 9 8
29 11 14 8 41 13 15 5 10 29 18 32 29 31 37 38 40 44 48 50 53 56 55 58 56 60 52 50 50 47 45 46 42 40 39 36 35 33 29 28 26 24 22 20 19 17 16 15 12
17 14 14 24 19 18 17 18 11 12 13 17 25 35 33 43 44 46 53 51 54 57 58 61 61 60 61 56 52 51 51 51 50 48 45 42 41 40 37 35 34 28 28 27 26 22 21 18 17
24 23 23 12 19 12 16 17 20 38 42 41 37 32 32 31 36 43 50 55 60 61 67 63 66 65 68 70 65 63 64 58 54 53 52 49 47 45 45 44 39 36 33 27 26 25 21 23 21
19 23 25 9 18 6 10 23 17 25 32 42 41 42 46 43 36 45 50 54 61 67 70 64 68 67 70 73 70 67 64 64 61 58 60 58 54 50 49 48 43 37 36 37 33 32 29 28 22
11 11 11 10 11 1 9 19 24 23 59 51 51 57 57 58 54 49 52 58 59 69 71 71 73 75 73 75 72 69 65 65 66 65 65 65 59 55 52 49 46 40 36 34 33 25 31 27 27
26 15 9 18 10 5 11 10 13 13 11 35 52 54 56 57 60 61 54 60 63 68 72 72 74 78 77 76 78 78 79 80 77 72 70 68 64 60 59 50 49 47 45 44 44 36 37 38 38
10 13 15 9 3 10 10 6 11 14 13 18 34 54 57 58 57 61 69 64 70 68 67 72 75 77 79 79 80 80 82 81 75 75 73 70 65 67 63 57 57 52 51 50 50 50 50 47 48
17 20 15 11 2 11 17 14 9 11 16 13 23 33 26 35 43 43 54 60 71 69 69 68 75 80 82 83 84 85 87 86 82 83 82 79 73 68 71 64 60 58 54 52 54 54 53 53 52
20 27 6 3 4 12 9 12 21 13 3 2 8 8 12 15 19 25 34 47 58 65 69 71 69 75 82 86 88 90 89 88 89 89 87 84 82 75 76 73 68 66 62 58 52 57 57 55 54
28 21 10 14 11 7 1 13 11 17 8 12 22 26 21 17 18 19 21 31 45 56 63 68 70 71 74 84 91 93 92 92 93 92 91 90 89 85 75 75 74 70 67 63 53 54 55 53 52
29 24 5 12 4 6 10 12 15 17 17 14 18 17 24 18 12 14 18 17 25 41 48 56 66 70 71 76 85 93 96 97 97 96 93 91 89 89 82 74 76 76 73 69 56 53 48 50 51
25 19 9 3 13 10 9 10 13 8 16 19 16 28 26 23 14 6 2 4 11 11 25 35 45 55 62 71 78 85 92 97 99 96 94 92 91 89 87 81 74 79 79 75 62 59 53 56 55
12 20 10 11 7 9 2 11 14 24 21 19 21 26 16 15 11 11 6 14 23 25 21 19 24 37 52 62 70 81 89 92 94 97 95 94 90 84 85 87 81 78 81 81 71 70 59 59 55
8 18 11 11 10 4 7 12 11 11 15 37 31 26 12 3 5 8 8 29 36 35 27 29 33 33 35 46 60 70 80 85 84 90 92 80 78 81 81 85 85 82 81 85 79 76 70 57 51
Wind_Direction_500mb
306 332 337 315 311 220 119 82 89 106 114 62 46 33 86 49 21 115 131 148 176 163 160 156 159 146 139 145 148 151 153 159 148 134 120 111 111 106 107 87 83 82 82 84 83 85 88 86 87
313 324 341 288 255 283 83 119 114 84 90 97 82 355 70 82 74 126 135 149 153 153 149 149 136 132 126 138 149 148 149 158 159 145 132 116 116 107 98 90 89 85 85 87 86 85 84 88 93
317 340 310 325 283 11 72 90 95 93 106 120 111 54 35 85 124 132 142 163 148 143 154 140 132 122 122 127 139 142 150 120 109 123 117 123 107 105 102 98 88 91 87 86 83 81 84 89 91
343 289 260 255 274 72 53 95 111 120 95 15 86 84 77 99 134 148 136 162 150 156 161 144 134 133 126 117 116 128 125 123 126 126 118 113 106 110 112 105 96 92 90 85 80 78 83 90 91
314 262 283 293 273 101 67 108 141 160 133 127 322 81 106 133 133 149 145 168 153 165 154 141 134 133 123 115 115 125 122 120 121 122 124 121 122 118 108 121 113 102 94 86 81 79 84 89 89
267 280 221 238 269 87 84 144 150 126 121 120 121 103 106 139 150 150 144 160 153 177 160 142 137 133 128 132 124 112 122 121 122 129 127 133 134 117 106 117 116 108 97 87 81 80 83 85 88
262 195 249 248 273 131 124 159 159 136 140 144 126 112 134 153 162 138 158 154 165 188 164 150 146 143 142 143 137 126 126 134 128 125 135 136 129 119 114 111 116 107 97 86 81 79 83 86 90
259 185 189 287 301 146 134 162 56 49 64 127 186 141 166 178 167 149 152 150 183 190 164 160 155 159 158 158 152 143 145 135 140 140 122 116 121 130 127 122 114 107 95 86 84 85 91 92 91
246 275 195 205 323 74 152 142 127 107 117 101 100 92 165 174 158 157 152 155 165 167 173 185 162 167 174 171 160 150 142 134 127 130 121 124 126 127 118 112 112 110 100 92 88 89 94 95 89
219 236 258 227 175 168 177 187 146 161 136 137 112 118 159 171 168 164 164 177 187 166 193 189 183 167 183 167 167 159 151 141 137 139 129 120 140 123 126 128 127 123 111 99 94 96 103 108 103
199 237 224 63 82 147 175 155 124 207 172 165 169 158 172 172 172 178 178 187 197 183 182 193 188 177 189 178 173 167 166 166 160 164 166 177 161 151 140 143 140 135 127 116 104 94 91 100 112
205 231 297 122 139 103 176 147 183 239 128 110 103 181 182 180 183 188 190 188 202 190 183 199 202 184 189 191 184 179 183 182 181 176 174 177 175 184 160 169 157 151 136 108 109 94 101 107 110
210 238 196 149 154 189 143 186 207 209 171 172 141 183 190 197 193 196 199 192 193 212 196 189 206 196 189 196 192 195 194 192 191 189 186 183 185 189 187 184 182 170 160 159 137 122 113 113 120
194 233 157 174 169 171 197 203 196 230 171 156 168 182 194 202 198 192 198 199 207 210 210 200 207 205 202 198 188 209 206 201 202 198 197 195 198 201 204 201 202 198 195 181 176 166 135 123 126
263 158 162 192 174 198 198 266 227 235 172 181 199 197 196 202 202 204 199 206 212 217 218 205 210 207 214 210 201 204 206 207 212 209 206 207 210 209 213 214 215 216 215 209 207 199 198 196 186
243 191 181 189 174 193 167 228 234 227 234 234 213 208 203 207 205 209 205 212 210 223 220 218 210 218 215 217 218 213 212 215 217 219 219 216 220 220 221 223 225 233 228 225 226 221 214 218 221
219 178 204 196 179 136 190 229 255 230 243 228 212 233 205 202 211 212 212 217 213 222 221 220 215 217 223 223 223 222 221 223 228 225 227 227 226 229 229 233 231 235 233 234 232 233 226 216 216
165 183 201 206 174 200 186 235 263 188 212 227 244 245 244 205 211 214 216 218 217 220 226 224 221 217 223 227 225 223 226 226 227 231 233 233 232 232 233 233 237 238 242 245 235 230 225 225 224
170 173 215 231 133 157 234 241 241 232 217 219 229 243 243 236 216 224 222 220 215 218 224 225 223 219 220 226 225 223 228 232 228 232 238 240 239 236 235 238 238 242 240 233 234 235 222 234 245
230 178 196 110 96 133 270 276 267 253 237 213 216 229 234 231 229 219 224 226 221 220 224 224 222 227 226 228 233 232 235 238 240 238 240 242 244 240 241 241 239 244 234 228 224 229 227 231 241
213 189 216 146 112 327 301 281 239 232 238 237 232 233 234 231 227 223 219 230 230 226 224 225 221 228 230 231 232 234 236 239 240 237 238 241 242 242 242 247 247 242 238 235 232 226 220 229 238
199 193 74 110 106 209 148 283 317 304 232 220 229 234 236 234 234 226 228 230 239 235 230 229 225 227 233 232 232 232 233 235 240 241 243 244 243 240 247 248 249 245 238 236 238 235 233 234 234
205 153 106 88 328 319 234 269 267 223 247 237 205 219 229 237 239 239 229 234 243 244 239 233 229 227 231 234 236 236 236 241 244 246 245 248 243 241 244 247 246 242 237 236 234 237 238 239 242
121 103 81 62 71 256 214 214 226 226 223 218 209 220 230 233 243 242 237 234 237 243 244 240 233 232 232 233 238 238 241 243 240 241 243 247 245 241 237 240 240 236 238 240 240 241 243 247 246
137 138 98 157 185 226 57 210 228 282 272 110 330 164 190 249 249 245 241 238 239 241 243 243 239 236 236 234 236 242 245 246 246 246 247 246 247 244 238 238 237 236 238 240 244 243 243 243 245
184 161 145 186 186 209 62 238 250 218 273 213 225 232 227 255 255 235 240 240 245 247 245 248 246 243 240 238 240 243 247 247 248 247 248 249 253 253 251 244 240 239 240 240 243 241 239 242 244
193 207 99 97 359 62 193 253 292 247 255 230 238 244 243 253 242 252 261 273 243 244 254 252 250 249 248 246 245 243 245 247 248 250 248 248 251 256 255 250 244 241 239 239 237 234 236 244 249
188 152 125 171 161 231 241 232 223 110 218 241 239 240 258 226 189 85 338 336 357 295 267 262 254 251 251 251 249 249 248 248 251 251 250 249 250 251 254 254 247 241 238 236 231 228 233 235 245
155 181 197 128 197 170 117 255 199 214 201 201 170 124 111 148 165 311 117 34 1 349 333 309 288 274 264 254 246 245 248 250 249 250 251 250 248 245 246 250 246 244 237 233 230 230 238 238 240
206 172 184 175 204 240 103 262 142 91 99 105 115 123 123 288 339 52 337 313 322 330 323 323 317 304 290 266 257 252 242 244 247 248 249 245 238 238 238 240 247 244 237 231 231 232 232 233 236
Wind_Speed_850mb
15 18 22 17 2 6 8 10 14 13 10 6 15 15 25 28 11 14 36 23 20 31 29 21 13 11 13 13 16 16 10 10 10 10 14 17 18 20 15 31 33 33 35 33 32 32 31 31 35
11 14 12 11 5 9 8 16 12 16 21 16 12 10 12 12 14 35 36 31 27 25 25 16 15 11 13 15 18 18 15 11 12 13 15 20 17 18 30 31 30 34 34 34 33 32 32 35 40
10 8 9 6 6 9 8 10 20 21 12 9 8 14 14 11 31 32 37 32 26 27 21 16 15 14 14 16 21 22 22 20 26 24 24 24 29 34 31 26 25 27 32 33 33 34 33 37 39
9 3 9 4 18 11 12 18 34 19 7 3 6 19 15 19 31 27 44 27 31 22 18 19 18 16 18 19 20 24 24 26 28 27 33 33 32 26 27 31 27 24 27 32 33 33 33 34 35
11 3 3 6 18 12 10 23 33 11 15 11 4 15 24 18 21 35 44 31 26 21 22 22 19 21 21 19 17 24 25 27 28 30 33 35 33 27 24 29 23 21 26 29 30 31 32 32 33
9 7 5 8 15 14 10 15 25 16 22 10 11 22 14 20 33 45 38 26 29 23 24 24 24 27 23 18 20 22 27 24 24 29 30 29 29 28 25 31 24 22 24 26 27 29 31 32 33
8 4 11 11 15 11 10 15 16 18 21 12 14 15 22 32 43 49 28 25 30 21 19 26 26 29 26 19 17 19 20 24 21 25 27 26 25 27 25 22 22 23 22 24 26 28 30 32 33
11 12 5 3 6 8 16 15 9 19 11 17 5 9 15 40 47 47 40 37 27 23 21 27 26 28 26 25 23 19 16 21 24 24 22 20 18 20 23 20 23 21 20 22 23 25 27 28 29
8 5 10 5 7 6 22 13 5 11 18 8 9 11 18 38 51 48 50 37 33 21 25 16 26 24 23 20 20 19 18 17 20 22 21 19 17 16 16 17 20 18 18 19 21 22 23 26 24
13 6 8 3 20 8 20 19 23 12 22 14 16 23 30 40 52 56 56 47 46 41 27 24 23 26 18 22 19 20 20 20 22 23 19 13 10 12 14 15 16 15 16 17 17 16 15 18 18
8 9 8 6 13 12 18 11 9 12 14 25 36 38 34 43 53 52 57 43 49 46 35 30 33 34 27 24 26 26 24 22 23 23 16 16 12 11 12 12 14 13 12 14 12 13 14 12 13
7 26 16 17 10 7 12 19 11 14 13 13 20 31 31 42 49 54 53 47 35 46 50 36 39 39 34 27 26 25 26 24 23 22 22 18 17 13 13 12 12 10 8 9 9 11 10 10 11
16 19 16 18 17 10 9 10 1 16 11 6 17 26 30 29 45 45 40 40 43 41 46 48 40 45 41 35 31 28 28 26 23 22 20 19 16 15 14 11 10 8 7 8 6 6 7 8 9
24 23 19 15 20 10 4 9 7 17 17 19 14 33 32 36 30 38 43 45 51 49 47 51 43 48 44 44 39 32 32 29 28 25 23 21 19 18 16 13 11 10 9 7 7 5 4 4 5
15 18 16 23 21 7 12 11 16 26 15 18 12 23 34 34 38 44 49 51 53 50 51 53 50 44 50 48 49 44 40 34 33 30 29 26 24 21 19 17 15 14 12 10 8 7 6 4 3
21 13 14 24 29 12 16 5 18 46 35 35 21 27 32 38 46 47 48 52 52 53 54 53 55 52 48 50 48 48 44 41 37 36 32 31 29 26 25 22 20 18 15 15 14 12 11 9 8
29 11 14 8 41 13 15 5 10 29 18 32 29 31 37 38 40 44 48 50 53 56 55 58 56 60 52 50 50 47 45 46 42 40 39 36 35 33 29 28 26 24 22 20 19 17 16 15 12
17 14 14 24 19 18 17 18 11 12 13 17 25 35 33 43 44 46 53 51 54 57 58 61 61 60 61 56 52 51 51 51 50 48 45 42 41 40 37 35 34 28 28 27 26 22 21 18 17
24 23 23 12 19 12 16 17 20 38 42 41 37 32 32 31 36 43 50 55 60 61 67 63 66 65 68 70 65 63 64 58 54 53 52 49 47 45 45 44 39 36 33 27 26 25 21 23 21
19 23 25 9 18 6 10 23 17 25 32 42 41 42 46 43 36 45 50 54 61 67 70 64 68 67 70 73 70 67 64 64 61 58 60 58 54 50 49 48 43 37 36 37 33 32 29 28 22
11 11 11 10 11 1 9 19 24 23 59 51 51 57 57 58 54 49 52 58 59 69 71 71 73 75 73 75 72 69 65 65 66 65 65 65 59 55 52 49 46 40 36 34 33 25 31 27 27
26 15 9 18 10 5 11 10 13 13 11 35 52 54 56 57 60 61 54 60 63 68 72 72 74 78 77 76 78 78 79 80 77 72 70 68 64 60 59 50 49 47 45 44 44 36 37 38 38
10 13 15 9 3 10 10 6 11 14 13 18 34 54 57 58 57 61 69 64 70 68 67 72 75 77 79 79 80 80 82 81 75 75 73 70 65 67 63 57 57 52 51 50 50 50 50 47 48
17 20 15 11 2 11 17 14 9 11 16 13 23 33 26 35 43 43 54 60 71 69 69 68 75 80 82 83 84 85 87 86 82 83 82 79 73 68 71 64 60 58 54 52 54 54 53 53 52
20 27 6 3 4 12 9 12 21 13 3 2 8 8 12 15 19 25 34 47 58 65 69 71 69 75 82 86 88 90 89 88 89 89 87 84 82 75 76 73 68 66 62 58 52 57 57 55 54
28 21 10 14 11 7 1 13 11 17 8 12 22 26 21 17 18 19 21 31 45 56 63 68 70 71 74 84 91 93 92 92 93 92 91 90 89 85 75 75 74 70 67 63 53 54 55 53 52
29 24 5 12 4 6 10 12 15 17 17 14 18 17 24 18 12 14 18 17 25 41 48 56 66 70 71 76 85 93 96 97 97 96 93 91 89 89 82 74 76 76 73 69 56 53 48 50 51
25 19 9 3 13 10 9 10 13 8 16 19 16 28 26 23 14 6 2 4 11 11 25 35 45 55 62 71 78 85 92 97 99 96 94 92 91 89 87 81 74 79 79 75 62 59 53 56 55
12 20 10 11 7 9 2 11 14 24 21 19 21 26 16 15 11 11 6 14 23 25 21 19 24 37 52 62 70 81 89 92 94 97 95 94 90 84 85 87 81 78 81 81 71 70 59 59 55
8 18 11 11 10 4 7 12 11 11 15 37 31 26 12 3 5 8 8 29 36 35 27 29 33 33 35 46 60 70 80 85 84 90 92 80 78 81 81 85 85 82 81 85 79 76 70 57 51
Wind_Direction_850mb
306 332 337 315 311 220 119 82 89 106 114 62 46 33 86 49 21 115 131 148 176 163 160 156 159 146 139 145 148 151 153 159 148 134 120 111 111 106 107 87 83 82 82 84 83 85 88 86 87
313 324 341 288 255 283 83 119 114 84 90 97 82 355 70 82 74 126 135 149 153 153 149 149 136 132 126 138 149 148 149 158 159 145 132 116 116 107 98 90 89 85 85 87 86 85 84 88 93
317 340 310 325 283 11 72 90 95 93 106 120 111 54 35 85 124 132 142 163 148 143 154 140 132 122 122 127 139 142 150 120 109 123 117 123 107 105 102 98 88 91 87 86 83 81 84 89 91
343 289 260 255 274 72 53 95 111 120 95 15 86 84 77 99 134 148 136 162 150 156 161 144 134 133 126 117 116 128 125 123 126 126 118 113 106 110 112 105 96 92 90 85 80 78 83 90 91
314 262 283 293 273 101 67 108 141 160 133 127 322 81 106 133 133 149 145 168 153 165 154 141 134 133 123 115 115 125 122 120 121 122 124 121 122 118 108 121 113 102 94 86 81 79 84 89 89
267 280 221 238 269 87 84 144 150 126 121 120 121 103 106 139 150 150 144 160 153 177 160 142 137 133 128 132 124 112 122 121 122 129 127 133 134 117 106 117 116 108 97 87 81 80 83 85 88
262 195 249 248 273 131 124 159 159 136 140 144 126 112 134 153 162 138 158 154 165 188 164 150 146 143 142 143 137 126 126 134 128 125 135 136 129 119 114 111 116 107 97 86 81 79 83 86 90
259 185 189 287 301 146 134 162 56 49 64 127 186 141 166 178 167 149 152 150 183 190 164 160 155 159 158 158 152 143 145 135 140 140 122 116 121 130 127 122 114 107 95 86 84 85 91 92 91
246 275 195 205 323 74 152 142 127 107 117 101 100 92 165 174 158 157 152 155 165 167 173 185 162 167 174 171 160 150 142 134 127 130 121 124 126 127 118 112 112 110 100 92 88 89 94 95 89
219 236 258 227 175 168 177 187 146 161 136 137 112 118 159 171 168 164 164 177 187 166 193 189 183 167 183 167 167 159 151 141 137 139 129 120 140 123 126 128 127 123 111 99 94 96 103 108 103
199 237 224 63 82 147 175 155 124 207 172 165 169 158 172 172 172 178 178 187 197 183 182 193 188 177 189 178 173 167 166 166 160 164 166 177 161 151 140 143 140 135 127 116 104 94 91 100 112
205 231 297 122 139 103 176 147 183 239 128 110 103 181 182 180 183 188 190 188 202 190 183 199 202 184 189 191 184 179 183 182 181 176 174 177 175 184 160 169 157 151 136 108 109 94 101 107 110
210 238 196 149 154 189 143 186 207 209 171 172 141 183 190 197 193 196 199 192 193 212 196 189 206 196 189 196 192 195 194 192 191 189 186 183 185 189 187 184 182 170 160 159 137 122 113 113 120
194 233 157 174 169 171 197 203 196 230 171 156 168 182 194 202 198 192 198 199 207 210 210 200 207 205 202 198 188 209 206 201 202 198 197 195 198 201 204 201 202 198 195 181 176 166 135 123 126
263 158 162 192 174 198 198 266 227 235 172 181 199 197 196 202 202 204 199 206 212 217 218 205 210 207 214 210 201 204 206 207 212 209 206 207 210 209 213 214 215 216 215 209 207 199 198 196 186
243 191 181 189 174 193 167 228 234 227 234 234 213 208 203 207 205 209 205 212 210 223 220 218 210 218 215 217 218 213 212 215 217 219 219 216 220 220 221 223 225 233 228 225 226 221 214 218 221
219 178 204 196 179 136 190 229 255 230 243 228 212 233 205 202 211 212 212 217 213 222 221 220 215 217 223 223 223 222 221 223 228 225 227 227 226 229 229 233 231 235 233 234 232 233 226 216 216
165 183 201 206 174 200 186 235 263 188 212 227 244 245 244 205 211 214 216 218 217 220 226 224 221 217 223 227 225 223 226 226 227 231 233 233 232 232 233 233 237 238 242 245 235 230 225 225 224
170 173 215 231 133 157 234 241 241 232 217 219 229 243 243 236 216 224 222 220 215 218 224 225 223 219 220 226 225 223 228 232 228 232 238 240 239 236 235 238 238 242 240 233 234 235 222 234 245
230 178 196 110 96 133 270 276 267 253 237 213 216 229 234 231 229 219 224 226 221 220 224 224 222 227 226 228 233 232 235 238 240 238 240 242 244 240 241 241 239 244 234 228 224 229 227 231 241
213 189 216 146 112 327 301 281 239 232 238 237 232 233 234 231 227 223 219 230 230 226 224 225 221 228 230 231 232 234 236 239 240 237 238 241 242 242 242 247 247 242 238 235 232 226 220 229 238
199 193 74 110 106 209 148 283 317 304 232 220 229 234 236 234 234 226 228 230 239 235 230 229 225 227 233 232 232 232 233 235 240 241 243 244 243 240 247 248 249 245 238 236 238 235 233 234 234
205 153 106 88 328 319 234 269 267 223 247 237 205 219 229 237 239 239 229 234 243 244 239 233 229 227 231 234 236 236 236 241 244 246 245 248 243 241 244 247 246 242 237 236 234 237 238 239 242
121 103 81 62 71 256 214 214 226 226 223 218 209 220 230 233 243 242 237 234 237 243 244 240 233 232 232 233 238 238 241 243 240 241 243 247 245 241 237 240 240 236 238 240 240 241 243 247 246
137 138 98 157 185 226 57 210 228 282 272 110 330 164 190 249 249 245 241 238 239 241 243 243 239 236 236 234 236 242 245 246 246 246 247 246 247 244 238 238 237 236 238 240 244 243 243 243 245
184 161 145 186 186 209 62 238 250 218 273 213 225 232 227 255 255 235 240 240 245 247 245 248 246 243 240 238 240 243 247 247 248 247 248 249 253 253 251 244 240 239 240 240 243 241 239 242 244
193 207 99 97 359 62 193 253 292 247 255 230 238 244 243 253 242 252 261 273 243 244 254 252 250 249 248 246 245 243 245 247 248 250 248 248 251 256 255 250 244 241 239 239 237 234 236 244 249
188 152 125 171 161 231 241 232 223 110 218 241 239 240 258 226 189 85 338 336 357 295 267 262 254 251 251 251 249 249 248 248 251 251 250 249 250 251 254 254 247 241 238 236 231 228 233 235 245
155 181 197 128 197 170 117 255 199 214 201 201 170 124 111 148 165 311 117 34 1 349 333 309 288 274 264 254 246 245 248 250 249 250 251 250 248 245 246 250 246 244 237 233 230 230 238 238 240
206 172 184 175 204 240 103 262 142 91 99 105 115 123 123 288 339 52 337 313 322 330 323 323 317 304 290 266 257 252 242 244 247 248 249 245 238 238 238 240 247 244 237 231 231 232 232 233 236